Location: Ladrillo (historical)
(32.8195°N, 117.2231°W)
Time: 00:08:24
(UTC+00:00)

Altair - Pass Details

Date: 07 March 2021
Orbit: 1501 x 1683 km, 47.2° (Epoch: 16 April)

Event Time Altitude Azimuth Distance (km) Brightness Sun altitude
Rises 05:37:57 0° 301° (WNW) 4,672 10.8 -46.9°
Reaches altitude 10° 05:41:17 10° 309° (NW) 3,709 10.0 -47.5°
Enters shadow 05:47:09 33° 343° (NNW) 2,393 8.6 -48.5°
